[Iaude] MPEC S56: 2016 SY1

mpec at si.edu mpec at si.edu
Thu Sep 29 16:06:12 EDT 2016


M.P.E.C. 2016-S56                                Issued 2016 Sept. 26, 23:48 UT
 
     The Minor Planet Electronic Circulars contain information on unusual
         minor planets and routine data on comets.  They are published
    on behalf of Division F of the International Astronomical Union by the
          Minor Planet Center, Smithsonian Astrophysical Observatory,
                          Cambridge, MA 02138, U.S.A.

             Prepared using the Tamkin Foundation Computer Network

                              MPC at CFA.HARVARD.EDU
            URL http://www.minorplanetcenter.net/    ISSN 1523-6714


                                   2016 SY1
 
Observations:
     K16S01Y* C2016 09 25.39276 01 19 47.42 +11 16 29.0          19.9 VqES056G96
     K16S01Y  C2016 09 25.40674 01 19 38.12 +11 13 44.8          20.1 VqES056G96
     K16S01Y  C2016 09 25.41330 01 19 33.79 +11 12 28.5          19.8 VqES056G96
     K16S01Y  C2016 09 25.41762 01 19 30.96 +11 11 38.9          20.3 VqES056G96
     K16S01Y  C2016 09 25.49354 01 18 43.18 +10 57 10.1          20.0 VqES056G96
     K16S01Y  C2016 09 25.49455 01 18 42.61 +10 56 58.6          20.0 VqES056G96
     K16S01Y  C2016 09 25.49553 01 18 42.01 +10 56 48.0          20.1 VqES056G96
     K16S01Y  C2016 09 25.49653 01 18 41.40 +10 56 37.3          20.0 VqES056G96
     K16S01Y KC2016 09 25.93869 01 15 21.95 +09 42 53.7          20.3 RqES056104
     K16S01Y KC2016 09 25.94257 01 15 20.00 +09 42 19.2          20.2 RqES056104
     K16S01Y KC2016 09 25.94723 01 15 17.69 +09 41 37.3                qES056104
     K16S01Y  C2016 09 26.24484 01 13 19.14 +09 00 51.7          20.4 VqES056G96
     K16S01Y  C2016 09 26.24735 01 13 18.07 +09 00 32.4          20.3 VqES056G96
     K16S01Y  C2016 09 26.24989 01 13 16.93 +09 00 12.4          20.5 VqES056G96
     K16S01Y  C2016 09 26.25244 01 13 15.80 +08 59 52.8          20.4 VqES056G96
 
Observer details:
104 San Marcello Pistoiese.  Observer P. Bacci.  Measurers P. Bacci, L. Tesi,
    G. Fagioli.  0.60-m f/4 reflector + CCD.
G96 Mt. Lemmon Survey.  Observers D. C. Fuls, E. J. Christensen.  Measurers
    E. J. Christensen, D. C. Fuls, A. R. Gibbs, A. D. Grauer, J. A. Johnson,
    R. A. Kowalski, S. M. Larson, G. J. Leonard, R. G. Matheny, R. L. Seaman,
    F. C. Shelly.  1.5-m reflector + 10K CCD.
 
Orbital elements:
2016 SY1                                                 Earth MOID = 0.0043 AU
Epoch 2016 July 31.0 TT = JDT 2457600.5                 MPC
M 357.11060              (2000.0)            P               Q
n   0.40776846     Peri.  104.39763     +0.33356123     +0.94271999
a   1.8010549      Node   185.09272     -0.88133207     +0.31033238
e   0.5769683      Incl.    2.57631     -0.33465010     +0.12236350
P   2.42           H   26.4           G   0.15           U   6
Residuals in seconds of arc
160925 G96  0.2-  0.5+    160925 G96  0.4+  0.4-    160925 104  0.1+  0.7-
160925 G96  0.2-  0.4-    160925 G96  0.3+  0.0     160926 G96  0.5-  0.2+
160925 G96  0.3-  0.3-    160925 G96  0.1+  0.6+    160926 G96  0.2+  0.3+
160925 G96  0.2-  0.2+    160925 104  0.6-  0.2+    160926 G96  0.2+  0.2-
160925 G96  0.1-  0.3-    160925 104  0.5-  0.0     160926 G96  0.4+  0.1-

Ephemeris:
2016 SY1                 a,e,i = 1.80, 0.58, 3                   q = 0.7619
Date    TT    R. A. (2000) Decl.     Delta      r     Elong.  Phase     V
2016 08 27    12 31 34.5 +02 42 26   0.2422  0.8170    32.7   138.1    29.5
...
2016 09 11    12 33 06.1 +04 48 03   0.09719 0.9152    18.8   159.2    31.8
...
2016 09 19    12 01 03.3 +16 04 45   0.02625 0.9792    15.0   164.6    31.4
...
2016 09 25    01 24 04.8 +12 43 03   0.02957 1.0303   157.7    21.7    19.9
2016 09 26    01 14 51.0 +09 36 12   0.03816 1.0390   162.1    17.2    20.3
2016 09 27    01 09 04.4 +07 37 34   0.04688 1.0477   165.3    14.1    20.7
...
2016 10 03    00 55 35.6 +03 03 11   0.1006  1.1008   175.2     4.4    22.0
...
2016 10 11    00 50 31.8 +01 27 45   0.1756  1.1728   173.2     5.7    23.4
...
2016 10 26    00 49 23.7 +00 59 21   0.3312  1.3081   158.6    16.1    25.5

A. U. Tomatic                (C) Copyright 2016 MPC           M.P.E.C. 2016-S56




More information about the Iaude mailing list